St Lucie West FAWN current weather conditions

sailwx.info

Wind from 353 at 4 knots

Air temperature 18.1° C
Dewpoint 15.8° C

Last reported at 2020-Jan-25 14:45 UTC.
Time now 2020-Jan-25 15:19 UTC

Location: N 27°20' W 080°37'.
View on Google Maps.

See reports from other nearby stations

  
Tides and Currents Weather Stations Pressure Air Temp Water Temp Dewpoint Dewpoint Depression Visibility Wind Speed Wind Dir Waves Ship Positions
date/time (UTC)wind fromknots sea level pressurealtimeterstation pressurevisibilityair tempwater tempwave heightnotes
2020-Jan-25 14:45 353 4 18.1
2020-Jan-25 14:30 354 4 18.1
2020-Jan-25 14:15 346 4 18.3
2020-Jan-25 14:00 344 5 18.0
2020-Jan-25 13:45 341 4 17.5
2020-Jan-25 13:30 341 4 16.8
2020-Jan-25 13:15 340 5 16.8
2020-Jan-25 13:00 336 4 16.9
2020-Jan-25 12:45 336 3 16.9
2020-Jan-25 12:30 337 5 16.9
2020-Jan-25 12:15 329 4 16.8
2020-Jan-25 12:00 319 3 16.8
2020-Jan-25 11:45 305 3 16.7
2020-Jan-25 11:30 279 2 16.6
2020-Jan-25 11:15 292 1 16.4
2020-Jan-25 11:00 287 2 16.5
2020-Jan-25 10:45 287 2 16.6
2020-Jan-25 10:30 255 2 16.8
2020-Jan-25 10:15 231 2 17.0
2020-Jan-25 10:00 262 3 17.2
2020-Jan-25 09:45 271 3 17.2
2020-Jan-25 09:30 243 2 17.3
2020-Jan-25 09:15 236 2 17.5
2020-Jan-25 09:00 233 2 17.7
2020-Jan-25 08:45 244 2 17.9
2020-Jan-25 08:30 242 3 18.0
2020-Jan-25 08:15 236 3 18.0
2020-Jan-25 08:00 241 3 18.0
2020-Jan-25 07:45 237 3 17.9
2020-Jan-25 07:30 246 3 17.9
2020-Jan-25 07:15 236 2 17.9
2020-Jan-25 07:00 249 2 18.0
2020-Jan-25 06:45 246 2 18.3
2020-Jan-25 06:30 225 2 18.3
2020-Jan-25 06:15 247 1 18.2
2020-Jan-25 06:00 216 1 18.1
2020-Jan-25 05:45 215 2 18.0
2020-Jan-25 05:30 202 3 17.9
2020-Jan-25 05:15 195 2 17.9
2020-Jan-25 05:00 208 1 18.1
2020-Jan-25 04:45 181 1 18.1
2020-Jan-25 04:30 191 2 18.3
2020-Jan-25 04:15 195 3 18.2
2020-Jan-25 04:00 200 2 18.0
2020-Jan-25 03:45 204 2 17.5
2020-Jan-25 03:30 189 2 17.3
2020-Jan-25 03:15 187 2 17.3
2020-Jan-25 03:00 197 2 17.3
2020-Jan-25 02:45 217 0 17.3
2020-Jan-25 02:30 202 2 17.5
2020-Jan-25 02:15 207 2 17.4
2020-Jan-25 02:00 196 3 17.6
2020-Jan-25 01:45 185 2 17.8
2020-Jan-25 01:30 171 2 17.9
2020-Jan-25 01:15 165 1 18.1
2020-Jan-25 01:00 185 3 18.2
2020-Jan-25 00:45 189 3 18.3
2020-Jan-25 00:30 187 3 18.3
2020-Jan-25 00:15 168 2 18.8
2020-Jan-25 00:00 185 2 19.0
2020-Jan-24 23:45 184 2 19.5
2020-Jan-24 23:30 153 2 20.4
2020-Jan-24 23:15 141 2 21.0
2020-Jan-24 23:00 147 2 21.7
2020-Jan-24 22:45 149 2 22.5
2020-Jan-24 22:30 156 2 23.2
2020-Jan-24 22:15 152 3 23.5
2020-Jan-24 22:00 150 3 23.8
2020-Jan-24 21:45 147 3 24.0
2020-Jan-24 21:30 160 3 24.1
2020-Jan-24 21:15 154 4 23.7
2020-Jan-24 21:00 137 3 23.2
2020-Jan-24 20:45 143 3 23.0
2020-Jan-24 20:30 157 3 23.2
2020-Jan-24 19:30 172 5 23.6
2020-Jan-24 19:15 132 3 23.4
2020-Jan-24 19:00 132 4 23.1
2020-Jan-24 18:45 123 4 22.6
2020-Jan-24 18:30 130 4 22.5
2020-Jan-24 18:15 134 5 22.6
2020-Jan-24 18:00 133 4 22.6
2020-Jan-24 17:45 126 4 22.1
2020-Jan-24 17:30 125 4 21.7
2020-Jan-24 17:15 125 4 21.3
2020-Jan-24 17:00 135 3 21.2
2020-Jan-24 16:45 134 3 20.8
2020-Jan-24 16:30 124 4 20.3
2020-Jan-24 16:15 129 5 20.2
2020-Jan-24 16:00 115 5 20.1
2020-Jan-24 15:45 115 5 19.8
2020-Jan-24 15:30 127 4 19.5
2020-Jan-24 15:15 120 3 19.3
2020-Jan-24 15:00 130 3 18.9
2020-Jan-24 14:45 113 3 18.8
2020-Jan-24 14:30 119 5 18.6
2020-Jan-24 14:15 126 5 18.3
2020-Jan-24 14:00 120 5 18.2
2020-Jan-24 13:45 123 4 18.1
2020-Jan-24 13:30 109 5 17.9
2020-Jan-24 13:15 110 6 17.8
2020-Jan-24 13:00 126 4 17.8
2020-Jan-24 12:45 173 1 17.7
2020-Jan-24 12:15 226 1 17.5
2020-Jan-24 12:00 257 1 17.4
2020-Jan-24 11:45 257 0 17.4
2020-Jan-24 11:30 196 0 17.3
2020-Jan-24 11:15 169 1 17.2
2020-Jan-24 11:00 304 1 17.2
2020-Jan-24 10:45 278 1 17.1
2020-Jan-24 10:30 273 1 17.1
2020-Jan-24 10:15 249 0 17.1
2020-Jan-24 10:00 356 0 17.1
2020-Jan-24 09:45 312 1 17.1
2020-Jan-24 09:30 293 1 17.1
2020-Jan-24 09:15 284 1 17.1
2020-Jan-24 09:00 291 1 17.0
2020-Jan-24 08:45 280 3 16.9
2020-Jan-24 08:30 273 3 16.8
2020-Jan-24 08:15 261 1 16.7
2020-Jan-24 08:00 259 1 16.6
2020-Jan-24 07:45 234 1 16.5
2020-Jan-24 07:30 209 0 16.5
2020-Jan-24 07:15 183 0 16.6
2020-Jan-24 07:00 193 0 16.6
2020-Jan-24 06:45 232 1 16.5
2020-Jan-24 06:30 298 1 16.6
2020-Jan-24 06:15 036 0 16.6
2020-Jan-24 06:00 022 0 17.1
2020-Jan-24 05:45 038 1 17.4
2020-Jan-24 05:30 035 1 17.6
2020-Jan-24 05:15 054 1 17.7
2020-Jan-24 05:00 040 2 17.7
2020-Jan-24 04:45 050 2 17.8
2020-Jan-24 04:30 069 1 17.7
2020-Jan-24 04:15 076 1 17.8
2020-Jan-24 04:00 087 2 17.6
2020-Jan-24 03:45 104 2 17.2
2020-Jan-24 03:30 088 1 16.8
2020-Jan-24 03:15 102 0 16.7
2020-Jan-24 03:00 058 0 16.8
2020-Jan-24 02:45 076 1 16.9
2020-Jan-24 02:30 087 2 16.6
2020-Jan-24 02:15 069 1 16.2
2020-Jan-24 02:00 044 1 16.2
2020-Jan-24 01:45 035 1 16.5
2020-Jan-24 01:30 026 1 16.7
2020-Jan-24 01:15 029 1 17.1
2020-Jan-24 01:00 048 1 17.4
2020-Jan-24 00:45 047 1 17.7
2020-Jan-24 00:30 038 2 17.9
2020-Jan-24 00:15 039 2 17.7
2020-Jan-24 00:00 042 1 17.8
2020-Jan-23 23:45 043 1 18.0
2020-Jan-23 23:30 026 1 18.0
2020-Jan-23 23:15 026 1 18.1
2020-Jan-23 23:00 049 1 18.1
2020-Jan-23 22:45 118 3 18.2
2020-Jan-23 22:30 131 4 18.4
2020-Jan-23 22:15 147 7 18.9
2020-Jan-23 22:00 077 2 20.1
2020-Jan-23 21:45 014 1 20.2
2020-Jan-23 21:30 029 2 20.4
2020-Jan-23 21:15 030 1 20.3
2020-Jan-23 21:00 051 1 20.1
2020-Jan-23 20:45 356 1 19.9
2020-Jan-23 20:30 080 2 19.6
2020-Jan-23 20:15 081 3 19.3
2020-Jan-23 20:00 088 3 20.0
2020-Jan-23 19:45 084 4 21.6
2020-Jan-23 19:30 057 3 23.8
2020-Jan-23 19:15 197 1 23.4
2020-Jan-23 19:00 119 1 22.1
2020-Jan-23 18:45 077 2 21.7
2020-Jan-23 18:30 073 2 22.1
2020-Jan-23 18:15 054 3 22.1
2020-Jan-23 18:00 069 3 21.9
2020-Jan-23 17:45 085 4 22.3
2020-Jan-23 17:30 102 5 21.3
2020-Jan-23 17:15 074 4 21.8
2020-Jan-23 17:00 046 2 22.3
2020-Jan-23 16:30 098 2 21.4
2020-Jan-23 16:15 094 3 20.8
2020-Jan-23 16:00 012 2 20.4
2020-Jan-23 15:45 003 2 19.3
2020-Jan-23 15:30 17.8
2020-Jan-23 15:15 350 2 16.6
2020-Jan-23 15:00 360 1 15.7